Flag for Switzerland Weather past 2 weeks in Delémont, Jura, Switzerland

Now
87 °F

Pleasantly warm.


Feels Like: 86 °F
Forecast: 63 / 74 °F
Wind: 10 mph from West

Location: Grenchen

Current Time: Jul 7, 2015 at 10:16:11 PM

Latest Report: Jul 7, 2015 at 9:00 PM


Visibility: N/A

Pressure: 29.74 "Hg

Humidity: 37%

Dew point: 57 °F

Location of DelémontLocation

Historic Weather in Delémont — Graph

°F

Delémont temperature yesterday

Maximum temperature yesterday: 88 °F (at 5:00 PM)
Minimum temperature yesterday: 73 °F (at 11:00 PM)
Average temperature yesterday: 80 °F

Past Weeks' High & Low Weather Summary

 TemperatureHumidityPressure
High99 °F (Jul 7, 4:00 PM)97% (Jun 25, 6:00 AM)30.26 "Hg (Jun 25, 6:00 AM)
Low44 °F (Jun 24, 5:00 AM)21% (Jul 7, 4:00 PM)29.71 "Hg (Jul 7, 7:00 PM)
Average72 °F61%30.09 "Hg
* Reported Jun 22 9:00 PM — Jul 7 9:00 PM, Delémont, Weather by CustomWeather, © 2015

Note: Actual official high and low records may vary slightly from our data, if they occured in-between our weather recording intervals... More about our weather records

Advertising

Delémont weather history for previous 24 hours

 ConditionsComfort  
Time TempWeatherWind HumidityBarometerVisibility
9:00 PM
Tue, Jul 7
87 °FPleasantly warm.10 mph37%29.74 "HgN/A
8:00 PM90 °FHot.8 mph30%29.74 "HgN/A
7:00 PM95 °FExtremely hot.13 mph23%29.71 "HgN/A
6:00 PM89 °FHot.8 mph38%29.74 "HgN/A
5:00 PM95 °FExtremely hot.17 mph27%29.74 "HgN/A
4:00 PM99 °FExtremely hot.12 mph21%29.74 "HgN/A
3:00 PM97 °FExtremely hot.12 mph26%29.78 "HgN/A
2:00 PM94 °FExtremely hot.10 mph32%29.82 "HgN/A
1:00 PM91 °FHot.13 mph40%29.86 "HgN/A
12:00 PM87 °FWarm.13 mph49%29.89 "HgN/A
11:00 AM82 °FWarm.6 mph59%29.92 "HgN/A
10:00 AM80 °FWarm.6 mph62%29.94 "HgN/A
9:00 AM76 °FMild.5 mph73%29.97 "HgN/A
8:00 AM73 °FMild.2 mph78%29.99 "HgN/A
7:00 AM69 °FMild.1 mph88%30.01 "HgN/A
6:00 AM67 °FMild.1 mph92%30.01 "HgN/A
5:00 AM67 °FMild.No wind91%30.01 "HgN/A
4:00 AM69 °FMild.1 mph88%30.01 "HgN/A
3:00 AM70 °FMild.2 mph87%30.02 "HgN/A
2:00 AM71 °FMild.3 mph85%30.02 "HgN/A
1:00 AM70 °FMild.5 mph86%30.03 "HgN/A
12:00 AM71 °FMild.5 mph83%30.04 "HgN/A
11:00 PM
Mon, Jul 6
73 °FMild.3 mph80%30.03 "HgN/A
10:00 PM76 °FMild.3 mph69%30.03 "HgN/A
Weather by CustomWeather, © 2015

See weather overviewHow to use our weather pages